Flag for Canada Weather past 2 weeks in Haldimand, Ontario, Canada

Now
66 °F

Passing clouds.


Feels Like: 66 °F
Forecast: 61 / 77 °F
Wind: 5 mph from Southwest

Location: Hamilton Airport

Current Time: Jul 7, 2015 at 3:03:58 AM

Latest Report: Jul 7, 2015 at 2:00 AM


Visibility: 12 mi

Pressure: 29.94 "Hg

Humidity: 94%

Dew point: 64 °F

Location of HaldimandLocation

Historic Weather in Haldimand — Graph

°F

Haldimand temperature yesterday

Maximum temperature yesterday: 79 °F (at 12:00 PM)
Minimum temperature yesterday: 61 °F (at 6:00 AM)
Average temperature yesterday: 71 °F

Past Weeks' High & Low Weather Summary

 TemperatureHumidityPressure
High81 °F (Jul 5, 3:00 PM)100% (Jun 23, 4:00 AM)30.14 "Hg (Jun 23, 4:00 AM)
Low50 °F (Jun 28, 7:00 AM)34% (Jun 25, 4:00 PM)29.67 "Hg (Jun 23, 5:00 AM)
Average64 °F77%29.94 "Hg
* Reported Jun 22 2:00 AM — Jul 7 2:00 AM, Haldimand, Weather by CustomWeather, © 2015

Note: Actual official high and low records may vary slightly from our data, if they occured in-between our weather recording intervals... More about our weather records

Advertising

Haldimand weather history for previous 24 hours

 ConditionsComfort  
Time TempWeatherWind HumidityBarometerVisibility
2:00 AM
Tue, Jul 7
66 °FPassing clouds.5 mph94%29.94 "Hg12 mi
1:00 AM68 °FPassing clouds.5 mph94%29.95 "Hg15 mi
12:00 AM68 °FPassing clouds.6 mph88%29.94 "Hg15 mi
11:00 PM
Mon, Jul 6
68 °FPassing clouds.6 mph88%29.96 "Hg12 mi
10:00 PM72 °FPartly sunny.9 mph83%29.96 "Hg15 mi
9:00 PM73 °FPartly sunny.8 mph74%29.97 "Hg15 mi
8:00 PM73 °FPartly sunny.6 mph78%29.97 "Hg15 mi
7:00 PM77 °FBroken clouds.8 mph74%29.98 "Hg15 mi
6:00 PM79 °FBroken clouds.6 mph70%29.99 "Hg15 mi
5:00 PM79 °FBroken clouds.10 mph70%30.01 "Hg12 mi
4:00 PM79 °FPartly sunny.8 mph70%30.02 "Hg12 mi
3:00 PM75 °FBroken clouds.10 mph74%30.02 "Hg12 mi
2:00 PM79 °FBroken clouds.10 mph70%30.03 "Hg10 mi
1:00 PM79 °FPassing clouds.7 mph74%30.05 "Hg15 mi
12:00 PM79 °FPassing clouds.7 mph70%30.08 "Hg15 mi
11:00 AM77 °FSunny.5 mph74%30.09 "Hg15 mi
10:00 AM73 °FScattered clouds.2 mph74%30.10 "Hg12 mi
9:00 AM70 °FPassing clouds.3 mph78%30.09 "Hg12 mi
8:00 AM66 °FPassing clouds.5 mph88%30.09 "Hg12 mi
7:00 AM61 °FPassing clouds.5 mph94%30.09 "Hg15 mi
6:00 AM61 °FPassing clouds.3 mph88%30.09 "Hg10 mi
5:00 AM63 °FPassing clouds.3 mph83%30.09 "Hg12 mi
4:00 AM63 °FPassing clouds.3 mph88%30.08 "Hg12 mi
3:00 AM63 °FPassing clouds.5 mph88%30.09 "Hg12 mi
Weather by CustomWeather, © 2015

See weather overviewHow to use our weather pages